Showing default

COSMOS 88, 1586

Orbit data source: Space-Track

COSMOS 88, 1586 is a payload satellite owned by OKB-10 (CIS) in LEO that was launched on Sat, 18 Sep 1965 UTC via a KOSMOS 65S3 launch vehicle from the Tyuratam Missile And Space Complex (TTMTR). Payloads include a variety of satellites, spacecraft, and rockets equipped with specific instruments for various scientific and technological missions. These include communications satellites like Starlink; space stations such as the ISS; scientific satellites like the Hubble; Earth observation satellites from companies like Planet Labs, Umbra, and HawkEye 360; GPS; miniature CubeSats for education and research; and military/defense satellites.

Loading next visibility...
COSMOS 88 details
Identifier
1586, 1965-073C
Orbit
LEO
Last TLE update19 hours ago
Origin
Flag of CISOKB-10 (CIS)
ManufacturerOKB-10
MissionDefense Communications
Bus & MotorSTRELA-1 11F610, Unknown motor
Mass50 kg wet, 50 kg dry
Launch date (UTC)
1965-09-18 (59 years ago)
Launch vehicle
KOSMOS 65S3
Launch site
Tyuratam Missile And Space Complex (TTMTR)
Object type
Payload
Rocket body
Debris
Shape & HBRPoly, 0.8 m
Radar Cross Section0.731 m², Medium (>0.1 m² and < 1m²)

Expand to show TLE details & history

TLE from 19 hours ago
0 COSMOS 88
1 01586U 65073C   25015.20281495 -.00000086  00000-0  52039-4 0  9993
2 01586  56.0629 323.9561 0187213 197.5602 302.7307 12.43336746694078
Epoch: 2025-01-15T04:52Z
Definitive object data (Epoch: 2025-01-15T04:52:03.211Z)
Latitude33.46722°
Longitude-70.22805°
Altitude1,417.373 km
Speed7.191 km/s
True Right ascension07h 50m 44s
True Declination33° 19' 21"
Sunlit
Object was in full shadow at TLE epoch
Visualization TLE readout
Latitude35.44839°
Longitude162.43139°
Altitude1,627.782 km
Speed7.002 km/s
Apparent Right ascension21h 00m 19s
Apparent Declination14° 04' 32"
Sunlit
Object is in daylight
Visualization observer readout
Local Sidereal Time00:21:29
Azimuth254.205° W
Elevation39.148°
Doppler factor1
Orbital elements
Apogee altitude1,639.658 km
Perigee altitude1,344.968 km
Semi-major axis7,870.45 km
Eccentricity0.0187213
Inclination56.0629°
RAAN323.9561°
Arg. of periapsis197.5602°
True anomaly300.90322°
Mean anomaly302.7307°
Eccentric anomaly301.81925°
Mean motion3.10845 °/min
BSTAR0.000052039
Orbital period115.81 mins
Loading maneuver chart data...
Loading historical data...
Loading historical data...
Loading historical data...
Loading historical data...
Loading historical data...
Loading historical data...
Loading historical data...

COSMOS 88 Visibility forecast

Observer location: undefined°, undefined

Span
Click to sort rows by Start time (UTC) header in descending order
Start Az.
Max El. time (UTC)
Max El. Az.
Max El.
End time (UTC)
End Az.
13 mins2025-01-15 23:39:17.287Z253.877° W2025-01-15 23:43:17.287Z318.761° NNW42.351°2025-01-15 23:52:17.287Z42.596° NE
14 mins2025-01-16 01:39:17.287Z290.605° WNW2025-01-16 01:46:17.287Z346.035° N28.037°2025-01-16 01:53:17.287Z42.818° NE
14 mins2025-01-16 03:43:17.287Z318.072° NNW2025-01-16 03:50:17.287Z14.976° NNE28.079°2025-01-16 03:57:17.287Z72.804° E
16 mins2025-01-16 05:45:17.287Z318.328° NNW2025-01-16 05:53:17.287Z54.736° ENE42.939°2025-01-16 06:01:17.287Z123.234° SE
13 mins2025-01-16 07:47:17.287Z294.778° NW2025-01-16 07:53:17.287Z241.708° WSW29.284°2025-01-16 08:00:17.287Z181.134° SSW
13 mins2025-01-16 20:44:17.287Z162.946° S2025-01-16 20:50:17.287Z119.877° SE24.233°2025-01-16 20:57:17.287Z68.494° E
18 mins2025-01-16 22:42:17.287Z224.148° SW2025-01-16 22:51:17.287Z23.117° NE44.871°2025-01-16 23:00:17.287Z45.513° ENE
|